Location: Bon Acre
(42.6442°N, 73.5758°W)
Time: 01:52:35
(UTC+00:00)

EXPRESS MD2 - Pass Details

Date: 14 December 2025
Orbit: 258 x 2835 km, 49.8° (Epoch: 12 January)

Event Time Altitude Azimuth Distance (km) Brightness Sun altitude
Rises 22:07:55 0° 236° (SW) 1,854 8.1 -8.4°
Reaches altitude 10° 22:09:32 10° 235° (SW) 1,109 6.5 -8.7°
Maximum altitude 22:11:50 79° 150° (SSE) 340 2.2 -9.1°
Enters shadow 22:14:28 14° 62° (ENE) 1,294 4.5 -9.5°
